Location: Unspecified
(0.0000°N, 0.0000°E)
Time: 05:19:22
(UTC+02:00)

ARIANE 5 R/B - Visible Passes

Search period start: 30 April 2017 00:00
Search period end: 10 May 2017 00:00
Orbit: 576 x 35551 km, 4.9° (Epoch: 26 April)

Date Brightness Start Highest point End Pass type
(mag) Time Alt. Az. Time Alt. Az. Time Alt. Az.
01 May 6.5 07:04:48 10° W 08:54:13 80° NW 17:02:50 10° E visible
02 May 6.5 04:12:26 82° WNW 04:14:01 86° N 13:58:55 10° E visible
03 May 7.8 01:20:11 16° E 01:20:11 16° E 01:28:08 10° E visible
03 May 10.2 05:02:43 10° E 09:03:47 33° E 10:37:32 10° E visible
03 May 4.2 21:58:17 10° WSW 22:01:08 29° SW 22:01:08 29° SW visible
05 May 6.9 06:09:31 26° W 06:56:50 84° N 16:04:37 10° E visible
06 May 6.8 03:17:15 67° ENE 03:17:15 67° ENE 12:58:22 10° E visible
07 May 11.0 05:46:21 10° E 08:06:01 21° E 09:20:44 10° E visible
07 May 3.3 20:57:23 10° W 21:04:18 49° S 21:05:52 29° SE visible
09 May 6.9 05:14:20 46° W 05:33:51 83° N 15:06:04 10° E visible
